Showing default

CHECKMATE 3, 56169

Orbit data source: Space-Track

CHECKMATE 3, 56169 is a payload satellite owned by SDA (US) in LEO that was launched on Sun, 02 Apr 2023 UTC via an FALCON 9 launch vehicle from the Air Force Western Test Range (AFWTR). Payload-class satellites include a variety of spacecraft equipped with specific instruments for various scientific and technological missions. These include communications satellites like Starlink; space stations such as the ISS; scientific satellites like the Hubble; Earth observation satellites from companies like Planet Labs, Umbra, and HawkEye 360; GPS; miniature CubeSats for education and research; and military/defense satellites.

Loading next visibility...
Identifier
56169, 2023-050H
Orbit
LEO
Country
Flag of USUS
Related business
Manufacturer
York Space Sys
Mission
Operational Defense Communications
Bus & Motor
S-CLASS, Unknown motor
Mass
~300 kg wet, ~300 kg dry
Launch date (UTC)
2023-04-02 (3 years ago)
Launch vehicle
FALCON 9
Launch site
Air Force Western Test Range (AFWTR)
Object type
Payload
Rocket body
Debris
Shape & HBR
Box + 1 Pan, 1.0 m
Radar Cross Section
0.945 m², Large (>1 m²)

Expand to show TLE details & history
Last TLE update: 2 days ago

TLE from 2 days ago
0 CHECKMATE 3
1 56169U 23050H   26171.41583898  .00000071  00000-0  53394-4 0  9996
2 56169  81.0030  68.3139 0006376 313.7958  46.2671 13.85150288162566
Epoch: 2026-06-20T09:58Z
TLE epoch observation values (Epoch: 2026-06-20T09:58:48.487Z)
Latitude
0.00003°
Longitude
9.98109°
Altitude
945.306 km
Speed
7.381 km/s
True Right ascension
04h 33m 15s
True Declination
0° 00' 00"
Sunlit
Object was in daylight at epoch
Visualization orbit readout
Latitude
Unknown
Longitude
Unknown
Altitude
Unknown
Speed
Unknown
Apparent Right ascension
Unknown
Apparent Declination
Unknown
Sunlit
N/A
Visualization observer readout
Local Sidereal Time
21:43:01
Azimuth
Unknown
Elevation
Unknown
Doppler factor
Unknown
Orbital elements
Apogee altitude
947.563 km
Perigee altitude
938.227 km
Semi-major axis
7,321.032 km
Eccentricity
0.00064
Inclination
81.003°
RAAN
68.3139°
Arg. of periapsis
313.7958°
True anomaly
46.31992°
Mean anomaly
46.2671°
Eccentric anomaly
46.29351°
Mean motion
3.46485 °/min
Orbital period
103.9 mins
BSTAR
0.000053394
Loading maneuver chart data...
Computing Atmospheric mass density...
Loading historical data...
Loading historical data...
Loading historical data...
Loading historical data...
Loading historical data...
Loading historical data...
Loading historical data...

Documentation

Showing up to 5 results
|